When you browse on this site, cookies collect data to enhance your experience and personalize the content and advertising you see.
Visit our Privacy Policy to learn more. By continuing to use the site, you agree to this use of cookies and data.
  • In Romania
  • List of Countries
  • For 7 days
  • Water Temperature
  • Satellite Maps
  • Weather Map
  • Weather Widgets
  • user-avatar
    Login

    Hourly Weather Stafford

    Today, 25 June, Tuesday

    Time Temperature Precipitation Wind Pressure Humidity
    00:00 +16°C° 0 mm 2 mps 756 mmHg 95%
    01:00 +16°C° 0 mm 2 mps 756 mmHg 95%
    02:00 +16°C° 0 mm 2 mps 755 mmHg 95%
    03:00 +15°C° 0 mm 2 mps 755 mmHg 95%
    04:00 +16°C° 0 mm 2 mps 755 mmHg 95%
    05:00 +16°C° 0 mm 3 mps 755 mmHg 95%
    06:00 +17°C° 0 mm 3 mps 756 mmHg 95%
    07:00 +17°C° 1.1 mm 4 mps 756 mmHg 95%
    08:00 +15°C° 1.1 mm 4 mps 756 mmHg 96%
    09:00 +15°C° 1.1 mm 4 mps 756 mmHg 96%
    10:00 +15°C° 0.9 mm 4 mps 756 mmHg 96%
    11:00 +16°C° 0.9 mm 3 mps 757 mmHg 96%
    12:00 +16°C° 0 mm 3 mps 757 mmHg 95%
    13:00 +16°C° 0.3 mm 3 mps 757 mmHg 95%
    14:00 +16°C° 0.3 mm 3 mps 758 mmHg 95%
    15:00 +16°C° 0.3 mm 3 mps 758 mmHg 95%
    16:00 +16°C° 0.1 mm 3 mps 758 mmHg 95%
    17:00 +15°C° 0.1 mm 4 mps 758 mmHg 94%
    18:00 +14°C° 0.1 mm 4 mps 759 mmHg 94%
    19:00 +14°C° 0 mm 3 mps 759 mmHg 94%
    20:00 +14°C° 0 mm 3 mps 760 mmHg 94%
    21:00 +15°C° 0 mm 2 mps 760 mmHg 95%
    22:00 +15°C° 0 mm 2 mps 761 mmHg 95%
    23:00 +15°C° 0 mm 2 mps 761 mmHg 95%

    Tomorrow, 26 June, Wednesday

    Time Temperature Precipitation Wind Pressure Humidity
    00:00 +15°C° 0 mm 2 mps 761 mmHg 95%
    01:00 +14°C° 0 mm 2 mps 761 mmHg 94%
    02:00 +14°C° 0 mm 2 mps 762 mmHg 94%
    03:00 +13°C° 0 mm 3 mps 762 mmHg 94%
    04:00 +13°C° 0 mm 3 mps 762 mmHg 93%
    05:00 +13°C° 0 mm 4 mps 762 mmHg 93%
    06:00 +13°C° 0 mm 4 mps 763 mmHg 92%
    07:00 +13°C° 0 mm 4 mps 763 mmHg 90%
    08:00 +14°C° 0 mm 4 mps 763 mmHg 88%
    09:00 +14°C° 0 mm 4 mps 764 mmHg 86%
    10:00 +15°C° 0 mm 4 mps 764 mmHg 84%
    11:00 +17°C° 0 mm 4 mps 764 mmHg 82%
    12:00 +18°C° 0 mm 4 mps 765 mmHg 81%
    13:00 +18°C° 0 mm 4 mps 764 mmHg 80%
    14:00 +17°C° 0 mm 5 mps 764 mmHg 80%
    15:00 +19°C° 0 mm 5 mps 764 mmHg 79%
    16:00 +17°C° 0 mm 5 mps 764 mmHg 80%
    17:00 +17°C° 0 mm 5 mps 764 mmHg 82%
    18:00 +17°C° 0 mm 5 mps 764 mmHg 83%
    19:00 +15°C° 0 mm 4 mps 764 mmHg 85%
    20:00 +14°C° 0 mm 4 mps 765 mmHg 88%
    21:00 +12°C° 0 mm 4 mps 765 mmHg 91%
    22:00 +11°C° 0 mm 3 mps 765 mmHg 91%
    23:00 +10°C° 0 mm 3 mps 765 mmHg 91%

    Day after tomorrow, 27 June, Thursday

    Time Temperature Precipitation Wind Pressure Humidity
    00:00 +9°C° 0 mm 3 mps 765 mmHg 90%
    01:00 +9°C° 0 mm 3 mps 765 mmHg 90%
    02:00 +9°C° 0 mm 3 mps 765 mmHg 90%
    03:00 +8°C° 0 mm 3 mps 765 mmHg 90%
    04:00 +9°C° 0 mm 3 mps 765 mmHg 87%
    05:00 +10°C° 0 mm 3 mps 765 mmHg 84%
    06:00 +11°C° 0 mm 3 mps 765 mmHg 82%
    07:00 +12°C° 0 mm 4 mps 765 mmHg 79%
    08:00 +14°C° 0 mm 4 mps 765 mmHg 76%
    09:00 +15°C° 0 mm 5 mps 765 mmHg 74%
    10:00 +17°C° 0 mm 5 mps 765 mmHg 74%
    11:00 +19°C° 0 mm 5 mps 765 mmHg 73%
    12:00 +20°C° 0 mm 5 mps 765 mmHg 73%
    13:00 +21°C° 0 mm 6 mps 765 mmHg 73%
    14:00 +21°C° 0 mm 6 mps 765 mmHg 72%
    15:00 +21°C° 0 mm 6 mps 764 mmHg 72%
    16:00 +21°C° 0 mm 6 mps 764 mmHg 74%
    17:00 +20°C° 0 mm 6 mps 764 mmHg 76%
    18:00 +20°C° 0 mm 6 mps 763 mmHg 78%
    19:00 +17°C° 0 mm 6 mps 763 mmHg 80%
    20:00 +15°C° 0 mm 6 mps 764 mmHg 82%
    21:00 +14°C° 0 mm 6 mps 764 mmHg 85%
    22:00 +13°C° 0 mm 6 mps 764 mmHg 86%
    23:00 +11°C° 0 mm 6 mps 763 mmHg 87%

    28 June, Friday

    Time Temperature Precipitation Wind Pressure Humidity
    00:00 +10°C° 0 mm 5 mps 763 mmHg 88%
    01:00 +10°C° 0 mm 5 mps 763 mmHg 90%
    02:00 +9°C° 0 mm 5 mps 763 mmHg 92%
    03:00 +10°C° 0 mm 4 mps 762 mmHg 94%
    04:00 +9°C° 0 mm 5 mps 762 mmHg 92%
    05:00 +10°C° 0 mm 5 mps 762 mmHg 90%
    06:00 +11°C° 0 mm 6 mps 762 mmHg 89%
    07:00 +13°C° 0 mm 6 mps 761 mmHg 85%
    08:00 +15°C° 0 mm 6 mps 761 mmHg 81%
    09:00 +16°C° 0 mm 6 mps 761 mmHg 78%
    10:00 +17°C° 0 mm 6 mps 761 mmHg 75%
    11:00 +20°C° 0 mm 7 mps 760 mmHg 73%
    12:00 +21°C° 0 mm 7 mps 760 mmHg 70%
    13:00 +22°C° 0 mm 7 mps 760 mmHg 70%
    14:00 +22°C° 0 mm 7 mps 759 mmHg 71%
    15:00 +22°C° 0 mm 7 mps 759 mmHg 72%
    16:00 +22°C° 0 mm 6 mps 759 mmHg 74%
    17:00 +21°C° 0 mm 6 mps 758 mmHg 76%
    18:00 +21°C° 0 mm 6 mps 758 mmHg 78%
    19:00 +19°C° 0 mm 6 mps 758 mmHg 80%
    20:00 +17°C° 0 mm 6 mps 757 mmHg 82%
    21:00 +16°C° 0 mm 5 mps 757 mmHg 84%
    22:00 +15°C° 0 mm 5 mps 757 mmHg 85%
    23:00 +14°C° 0 mm 4 mps 757 mmHg 87%

    29 June, Saturday

    Time Temperature Precipitation Wind Pressure Humidity
    00:00 +13°C° 0 mm 4 mps 757 mmHg 88%
    01:00 +12°C° 0 mm 4 mps 756 mmHg 89%
    02:00 +12°C° 0 mm 4 mps 756 mmHg 90%
    03:00 +11°C° 0 mm 4 mps 755 mmHg 91%
    04:00 +12°C° 0 mm 3 mps 755 mmHg 90%
    05:00 +13°C° 0 mm 3 mps 755 mmHg 90%
    06:00 +13°C° 0 mm 3 mps 754 mmHg 89%
    07:00 +15°C° 0 mm 4 mps 754 mmHg 87%
    08:00 +18°C° 0 mm 4 mps 754 mmHg 84%
    09:00 +20°C° 0 mm 4 mps 753 mmHg 81%
    10:00 +21°C° 0 mm 4 mps 753 mmHg 79%
    11:00 +23°C° 0 mm 4 mps 752 mmHg 77%
    12:00 +25°C° 0 mm 4 mps 752 mmHg 74%
    13:00 +25°C° 0 mm 4 mps 752 mmHg 77%
    14:00 +24°C° 0 mm 3 mps 751 mmHg 80%
    15:00 +24°C° 0 mm 3 mps 751 mmHg 83%
    16:00 +22°C° 0.1 mm 3 mps 751 mmHg 86%
    17:00 +21°C° 0.1 mm 3 mps 750 mmHg 88%
    18:00 +20°C° 0.1 mm 3 mps 750 mmHg 91%
    19:00 +19°C° 0 mm 3 mps 750 mmHg 91%
    20:00 +18°C° 0 mm 4 mps 750 mmHg 90%
    21:00 +15°C° 0 mm 4 mps 750 mmHg 90%
    22:00 +14°C° 0 mm 4 mps 750 mmHg 91%
    23:00 +13°C° 0 mm 4 mps 750 mmHg 93%

    30 June, Sunday

    Time Temperature Precipitation Wind Pressure Humidity
    00:00 +13°C° 0 mm 4 mps 751 mmHg 94%
    01:00 +13°C° 0 mm 4 mps 750 mmHg 92%
    02:00 +13°C° 0 mm 4 mps 750 mmHg 90%
    03:00 +13°C° 0 mm 5 mps 750 mmHg 88%
    04:00 +13°C° 0 mm 5 mps 750 mmHg 88%
    05:00 +13°C° 0 mm 5 mps 751 mmHg 88%
    06:00 +14°C° 0 mm 5 mps 751 mmHg 88%
    07:00 +15°C° 0 mm 5 mps 751 mmHg 85%
    08:00 +16°C° 0 mm 6 mps 751 mmHg 81%
    09:00 +17°C° 0 mm 6 mps 752 mmHg 77%
    10:00 +19°C° 0.1 mm 6 mps 752 mmHg 75%
    11:00 +20°C° 0.1 mm 6 mps 752 mmHg 73%
    12:00 +20°C° 0.1 mm 6 mps 752 mmHg 71%
    13:00 +20°C° 0.1 mm 6 mps 752 mmHg 70%
    14:00 +20°C° 0.1 mm 7 mps 752 mmHg 69%
    15:00 +20°C° 0.1 mm 7 mps 752 mmHg 68%
    16:00 +20°C° 0.1 mm 7 mps 752 mmHg 71%
    17:00 +19°C° 0.1 mm 6 mps 752 mmHg 74%
    18:00 +17°C° 0.1 mm 5 mps 752 mmHg 77%
    19:00 +16°C° 0.1 mm 5 mps 753 mmHg 81%
    20:00 +15°C° 0.1 mm 4 mps 753 mmHg 86%
    21:00 +14°C° 0.1 mm 4 mps 754 mmHg 90%
    22:00 +13°C° 0 mm 4 mps 754 mmHg 90%
    23:00 +12°C° 0 mm 4 mps 754 mmHg 90%
    Show more